• In Czech Republic
  • List of Countries
  • For 7 days
  • Water Temperature
  • Satellite Maps
  • Weather Map
  • Weather Widgets
  • user-avatar
    Login

    Hourly Weather Zarzecze

    Today, 21 September, Friday

    Time Temperature Precipitation Wind Pressure Humidity
    00:00 +18°C° 0 mm 3 mps 739 mmHg 71%
    01:00 +18°C° 0 mm 2 mps 739 mmHg 73%
    02:00 +17°C° 0 mm 2 mps 739 mmHg 75%
    03:00 +17°C° 0 mm 2 mps 739 mmHg 76%
    04:00 +17°C° 0 mm 2 mps 739 mmHg 76%
    05:00 +17°C° 0 mm 2 mps 739 mmHg 77%
    06:00 +17°C° 0 mm 3 mps 739 mmHg 75%
    07:00 +18°C° 0 mm 3 mps 739 mmHg 72%
    08:00 +18°C° 0 mm 4 mps 739 mmHg 68%
    09:00 +20°C° 0 mm 4 mps 739 mmHg 63%
    10:00 +22°C° 0 mm 4 mps 739 mmHg 58%
    11:00 +25°C° 0 mm 5 mps 738 mmHg 54%
    12:00 +25°C° 0 mm 5 mps 738 mmHg 50%
    13:00 +26°C° 0 mm 5 mps 738 mmHg 47%
    14:00 +27°C° 0 mm 5 mps 737 mmHg 44%
    15:00 +26°C° 0 mm 5 mps 737 mmHg 46%
    16:00 +25°C° 0 mm 5 mps 736 mmHg 49%
    17:00 +25°C° 0 mm 4 mps 735 mmHg 52%
    18:00 +22°C° 0 mm 5 mps 735 mmHg 52%
    19:00 +21°C° 0 mm 5 mps 734 mmHg 53%
    20:00 +20°C° 0 mm 6 mps 734 mmHg 54%
    21:00 +20°C° 0 mm 6 mps 733 mmHg 53%
    22:00 +20°C° 0 mm 6 mps 733 mmHg 53%
    23:00 +20°C° 0 mm 6 mps 732 mmHg 52%

    Tomorrow, 22 September, Saturday

    Time Temperature Precipitation Wind Pressure Humidity
    00:00 +20°C° 0 mm 6 mps 732 mmHg 55%
    01:00 +19°C° 0 mm 6 mps 732 mmHg 57%
    02:00 +19°C° 0 mm 6 mps 732 mmHg 60%
    03:00 +16°C° 1.2 mm 6 mps 733 mmHg 69%
    04:00 +14°C° 1.2 mm 6 mps 733 mmHg 78%
    05:00 +11°C° 1.2 mm 6 mps 733 mmHg 87%
    06:00 +11°C° 0.5 mm 6 mps 734 mmHg 85%
    07:00 +10°C° 0.5 mm 5 mps 735 mmHg 83%
    08:00 +10°C° 0.5 mm 5 mps 735 mmHg 81%
    09:00 +10°C° 0 mm 5 mps 736 mmHg 75%
    10:00 +12°C° 0 mm 5 mps 736 mmHg 70%
    11:00 +11°C° 0 mm 6 mps 736 mmHg 64%
    12:00 +13°C° 0 mm 6 mps 736 mmHg 62%
    13:00 +14°C° 0 mm 6 mps 737 mmHg 59%
    14:00 +14°C° 0 mm 6 mps 737 mmHg 56%
    15:00 +14°C° 0.2 mm 6 mps 737 mmHg 59%
    16:00 +13°C° 0.2 mm 5 mps 736 mmHg 61%
    17:00 +13°C° 0.2 mm 5 mps 736 mmHg 64%
    18:00 +12°C° 0.1 mm 4 mps 736 mmHg 70%
    19:00 +10°C° 0.1 mm 3 mps 736 mmHg 76%
    20:00 +9°C° 0.1 mm 3 mps 737 mmHg 82%
    21:00 +9°C° 0 mm 3 mps 736 mmHg 82%
    22:00 +8°C° 0 mm 3 mps 736 mmHg 82%
    23:00 +8°C° 0 mm 3 mps 736 mmHg 83%

    Day after tomorrow, 23 September, Sunday

    Time Temperature Precipitation Wind Pressure Humidity
    00:00 +7°C° 0 mm 4 mps 736 mmHg 83%
    01:00 +7°C° 0 mm 4 mps 736 mmHg 83%
    02:00 +7°C° 0 mm 4 mps 736 mmHg 83%
    03:00 +7°C° 0 mm 4 mps 736 mmHg 83%
    04:00 +7°C° 0 mm 4 mps 735 mmHg 83%
    05:00 +7°C° 0 mm 5 mps 735 mmHg 83%
    06:00 +7°C° 0 mm 5 mps 735 mmHg 81%
    07:00 +7°C° 0 mm 6 mps 735 mmHg 78%
    08:00 +8°C° 0 mm 6 mps 735 mmHg 76%
    09:00 +8°C° 0 mm 7 mps 735 mmHg 73%
    10:00 +9°C° 0 mm 7 mps 735 mmHg 70%
    11:00 +10°C° 0 mm 7 mps 735 mmHg 67%
    12:00 +10°C° 0.1 mm 7 mps 735 mmHg 66%
    13:00 +11°C° 0.1 mm 7 mps 735 mmHg 66%
    14:00 +11°C° 0.1 mm 7 mps 736 mmHg 65%
    15:00 +11°C° 0.1 mm 7 mps 736 mmHg 65%
    16:00 +11°C° 0.1 mm 6 mps 735 mmHg 66%
    17:00 +11°C° 0.1 mm 6 mps 735 mmHg 66%
    18:00 +10°C° 0 mm 5 mps 735 mmHg 71%
    19:00 +10°C° 0 mm 4 mps 735 mmHg 76%
    20:00 +9°C° 0 mm 3 mps 735 mmHg 81%
    21:00 +8°C° 0 mm 3 mps 735 mmHg 82%
    22:00 +8°C° 0 mm 3 mps 734 mmHg 82%
    23:00 +8°C° 0 mm 3 mps 734 mmHg 83%

    24 September, Monday

    Time Temperature Precipitation Wind Pressure Humidity
    00:00 +7°C° 0 mm 3 mps 733 mmHg 83%
    01:00 +7°C° 0 mm 2 mps 733 mmHg 82%
    02:00 +7°C° 0 mm 2 mps 732 mmHg 82%
    03:00 +7°C° 0.2 mm 2 mps 732 mmHg 84%
    04:00 +7°C° 0.2 mm 2 mps 731 mmHg 86%
    05:00 +8°C° 0.2 mm 1 mps 730 mmHg 87%
    06:00 +8°C° 0.8 mm 1 mps 730 mmHg 89%
    07:00 +8°C° 0.8 mm 1 mps 729 mmHg 91%
    08:00 +8°C° 0.8 mm 1 mps 729 mmHg 92%
    09:00 +8°C° 0.4 mm 2 mps 729 mmHg 90%
    10:00 +8°C° 0.4 mm 3 mps 729 mmHg 88%
    11:00 +8°C° 0.4 mm 4 mps 729 mmHg 86%
    12:00 +10°C° 0.6 mm 4 mps 730 mmHg 81%
    13:00 +9°C° 0.6 mm 5 mps 731 mmHg 76%
    14:00 +10°C° 0.6 mm 6 mps 731 mmHg 71%
    15:00 +9°C° 0.5 mm 6 mps 732 mmHg 73%
    16:00 +9°C° 0.5 mm 6 mps 733 mmHg 76%
    17:00 +8°C° 0.5 mm 6 mps 733 mmHg 78%
    18:00 +7°C° 0.4 mm 6 mps 734 mmHg 80%
    19:00 +7°C° 0.4 mm 6 mps 735 mmHg 83%
    20:00 +5°C° 0.4 mm 7 mps 736 mmHg 85%
    21:00 +4°C° 0.1 mm 6 mps 736 mmHg 85%
    22:00 +4°C° 0.1 mm 6 mps 737 mmHg 85%
    23:00 +3°C° 0.1 mm 5 mps 738 mmHg 85%

    25 September, Tuesday

    Time Temperature Precipitation Wind Pressure Humidity
    00:00 +3°C° 0 mm 5 mps 738 mmHg 86%
    01:00 +3°C° 0 mm 5 mps 739 mmHg 87%
    02:00 +2°C° 0 mm 5 mps 740 mmHg 88%
    03:00 +2°C° 0 mm 5 mps 740 mmHg 87%
    04:00 +2°C° 0 mm 5 mps 741 mmHg 86%
    05:00 +2°C° 0 mm 5 mps 741 mmHg 85%
    06:00 +3°C° 0.1 mm 5 mps 742 mmHg 82%
    07:00 +3°C° 0.1 mm 5 mps 742 mmHg 80%
    08:00 +4°C° 0.1 mm 6 mps 743 mmHg 78%
    09:00 +5°C° 0.1 mm 6 mps 743 mmHg 72%
    10:00 +6°C° 0.1 mm 7 mps 744 mmHg 66%
    11:00 +8°C° 0.1 mm 7 mps 744 mmHg 61%
    12:00 +7°C° 0.1 mm 8 mps 744 mmHg 56%
    13:00 +9°C° 0.1 mm 8 mps 745 mmHg 52%
    14:00 +10°C° 0.1 mm 8 mps 745 mmHg 47%
    15:00 +9°C° 0 mm 7 mps 745 mmHg 49%
    16:00 +9°C° 0 mm 6 mps 745 mmHg 51%
    17:00 +9°C° 0 mm 5 mps 745 mmHg 53%
    18:00 +8°C° 0 mm 5 mps 745 mmHg 60%
    19:00 +6°C° 0 mm 4 mps 745 mmHg 67%
    20:00 +5°C° 0 mm 4 mps 745 mmHg 74%
    21:00 +6°C° 0.1 mm 4 mps 745 mmHg 78%
    22:00 +6°C° 0.1 mm 5 mps 744 mmHg 81%
    23:00 +7°C° 0.1 mm 6 mps 744 mmHg 85%

    26 September, Wednesday

    Time Temperature Precipitation Wind Pressure Humidity
    00:00 +7°C° 0.2 mm 6 mps 743 mmHg 86%
    01:00 +8°C° 0.2 mm 6 mps 743 mmHg 86%
    02:00 +8°C° 0.2 mm 6 mps 743 mmHg 87%
    03:00 +8°C° 0.3 mm 6 mps 742 mmHg 88%
    04:00 +8°C° 0.3 mm 6 mps 742 mmHg 89%
    05:00 +8°C° 0.3 mm 7 mps 742 mmHg 90%
    06:00 +8°C° 1 mm 7 mps 741 mmHg 90%
    07:00 +8°C° 1 mm 7 mps 741 mmHg 90%
    08:00 +8°C° 1 mm 7 mps 741 mmHg 90%
    09:00 +8°C° 0.4 mm 7 mps 741 mmHg 88%
    10:00 +9°C° 0.4 mm 7 mps 741 mmHg 86%
    11:00 +9°C° 0.4 mm 7 mps 741 mmHg 84%
    12:00 +10°C° 0.2 mm 7 mps 742 mmHg 80%
    13:00 +10°C° 0.2 mm 7 mps 742 mmHg 76%
    14:00 +11°C° 0.2 mm 7 mps 742 mmHg 72%
    15:00 +11°C° 0.2 mm 7 mps 742 mmHg 74%
    16:00 +10°C° 0.2 mm 6 mps 742 mmHg 77%
    17:00 +10°C° 0.2 mm 5 mps 742 mmHg 80%
    18:00 +9°C° 0.2 mm 5 mps 742 mmHg 82%
    19:00 +10°C° 0.2 mm 4 mps 742 mmHg 85%
    20:00 +10°C° 0.2 mm 4 mps 742 mmHg 88%
    21:00 +10°C° 0.1 mm 4 mps 742 mmHg 89%
    22:00 +9°C° 0.1 mm 5 mps 742 mmHg 90%
    23:00 +9°C° 0.1 mm 5 mps 742 mmHg 91%
    Show more